Time,TemperatureF,DewpointF,PressureIn,WindDirection,WindDirectionDegrees,WindSpeedMPH,WindSpeedGustMPH,Humidity,HourlyPrecipIn,Conditions,Clouds,dailyrainin,SoftwareType,DateUTC
2013-04-21 00:29:00,47.2,43.2,30.01,NW,304,3.0,4.0,86,0.00,,,0.00,Wunderground v.1.15,2013-04-21 07:29:00,
2013-04-21 00:58:00,46.9,43.2,30.01,WNW,299,3.0,5.0,87,0.00,,,0.00,Wunderground v.1.15,2013-04-21 07:58:00,
2013-04-21 01:28:00,46.2,42.8,30.01,WNW,300,0.0,0.0,88,0.00,,,0.00,Wunderground v.1.15,2013-04-21 08:28:00,
2013-04-21 01:58:00,45.7,42.6,30.01,WNW,302,3.0,3.0,89,0.00,,,0.00,Wunderground v.1.15,2013-04-21 08:58:00,
2013-04-21 02:28:00,45.6,42.8,30.01,WNW,302,2.0,4.0,90,0.00,,,0.00,Wunderground v.1.15,2013-04-21 09:28:00,
2013-04-21 02:58:00,45.9,42.8,30.00,WNW,302,1.0,1.0,89,0.00,,,0.00,Wunderground v.1.15,2013-04-21 09:58:00,
2013-04-21 03:28:00,45.9,42.5,29.99,WNW,302,1.0,2.0,88,0.00,,,0.00,Wunderground v.1.15,2013-04-21 10:28:00,
2013-04-21 03:58:00,46.5,43.1,29.98,NW,320,3.0,3.0,88,0.00,,,0.00,Wunderground v.1.15,2013-04-21 10:58:00,
2013-04-21 04:28:00,45.6,42.5,29.99,WNW,286,0.0,0.0,89,0.00,,,0.00,Wunderground v.1.15,2013-04-21 11:28:00,
2013-04-21 04:59:00,45.7,43.5,29.99,WNW,298,3.0,5.0,92,0.00,,,0.00,Wunderground v.1.15,2013-04-21 11:59:00,
2013-04-21 05:28:00,46.1,43.3,29.98,NW,316,4.0,6.0,90,0.00,,,0.00,Wunderground v.1.15,2013-04-21 12:28:00,
2013-04-21 05:58:00,46.9,44.1,29.99,WNW,299,4.0,4.0,90,0.00,,,0.00,Wunderground v.1.15,2013-04-21 12:58:00,
2013-04-21 06:29:00,48.0,44.3,29.99,WNW,302,1.0,2.0,87,0.00,,,0.00,Wunderground v.1.15,2013-04-21 13:29:00,
2013-04-21 06:58:00,50.3,45.0,30.00,WNW,292,3.0,5.0,82,0.00,,,0.00,Wunderground v.1.15,2013-04-21 13:58:00,
2013-04-21 07:28:00,54.6,46.1,30.01,WNW,300,2.0,2.0,73,0.00,,,0.00,Wunderground v.1.15,2013-04-21 14:28:00,
2013-04-21 07:58:00,57.4,46.9,30.02,WNW,298,3.0,4.0,68,0.00,,,0.00,Wunderground v.1.15,2013-04-21 14:58:00,
2013-04-21 08:29:00,59.9,47.7,30.03,NW,309,2.0,6.0,64,0.00,,,0.00,Wunderground v.1.15,2013-04-21 15:29:00,
2013-04-21 08:58:00,62.8,47.8,30.03,NNW,336,2.0,2.0,58,0.00,,,0.00,Wunderground v.1.15,2013-04-21 15:58:00,
2013-04-21 09:29:00,65.0,49.9,30.03,SE,135,2.0,2.0,58,0.00,,,0.00,Wunderground v.1.15,2013-04-21 16:29:00,
2013-04-21 09:59:00,68.3,49.5,30.03,SSW,197,1.0,1.0,51,0.00,,,0.00,Wunderground v.1.15,2013-04-21 16:59:00,
2013-04-21 10:28:00,68.8,51.0,30.03,ESE,114,3.0,3.0,53,0.00,,,0.00,Wunderground v.1.15,2013-04-21 17:28:00,
2013-04-21 10:58:00,70.5,51.5,30.03,South,176,2.0,2.0,51,0.00,,,0.00,Wunderground v.1.15,2013-04-21 17:58:00,
2013-04-21 11:28:00,72.7,48.3,30.03,East,97,2.0,2.0,42,0.00,,,0.00,Wunderground v.1.15,2013-04-21 18:28:00,
2013-04-21 11:58:00,74.9,46.1,30.02,South,173,2.0,2.0,36,0.00,,,0.00,Wunderground v.1.15,2013-04-21 18:58:00,
2013-04-21 12:28:00,77.2,47.4,30.01,SSW,210,2.0,2.0,35,0.00,,,0.00,Wunderground v.1.15,2013-04-21 19:28:00,
2013-04-21 12:59:00,78.8,46.4,30.00,WNW,300,3.0,6.0,32,0.00,,,0.00,Wunderground v.1.15,2013-04-21 19:59:00,
2013-04-21 13:28:00,78.2,48.3,29.99,WNW,288,7.0,9.0,35,0.00,,,0.00,Wunderground v.1.15,2013-04-21 20:28:00,
2013-04-21 13:59:00,78.4,46.9,29.98,WNW,288,7.0,7.0,33,0.00,,,0.00,Wunderground v.1.15,2013-04-21 20:59:00,
2013-04-21 14:29:00,78.9,45.7,29.98,WNW,283,8.0,11.0,31,0.00,,,0.00,Wunderground v.1.15,2013-04-21 21:29:00,
2013-04-21 14:59:00,78.7,44.7,29.97,West,271,9.0,9.0,30,0.00,,,0.00,Wunderground v.1.15,2013-04-21 21:59:00,
2013-04-21 15:28:00,79.6,42.7,29.96,WNW,286,8.0,12.0,27,0.00,,,0.00,Wunderground v.1.15,2013-04-21 22:28:00,
2013-04-21 15:58:00,80.1,43.1,29.95,West,279,7.0,8.0,27,0.00,,,0.00,Wunderground v.1.15,2013-04-21 22:58:00,
2013-04-21 16:28:00,79.8,40.8,29.95,WNW,294,9.0,12.0,25,0.00,,,0.00,Wunderground v.1.15,2013-04-21 23:28:00,
2013-04-21 16:59:00,79.1,40.2,29.94,WNW,294,8.0,10.0,25,0.00,,,0.00,Wunderground v.1.15,2013-04-21 23:59:00,
2013-04-21 17:28:00,77.7,44.6,29.94,WNW,289,9.0,11.0,31,0.00,,,0.00,Wunderground v.1.15,2013-04-22 00:28:00,
2013-04-21 17:59:00,76.7,43.8,29.93,WNW,303,8.0,9.0,31,0.00,,,0.00,Wunderground v.1.15,2013-04-22 00:59:00,
2013-04-21 18:29:00,74.8,44.5,29.93,WNW,292,8.0,8.0,34,0.00,,,0.00,Wunderground v.1.15,2013-04-22 01:29:00,
2013-04-21 18:58:00,73.9,40.5,29.93,NNW,334,2.0,2.0,30,0.00,,,0.00,Wunderground v.1.15,2013-04-22 01:58:00,
2013-04-21 19:28:00,70.4,39.1,29.92,NW,307,4.0,4.0,32,0.00,,,0.00,Wunderground v.1.15,2013-04-22 02:28:00,
2013-04-21 19:59:00,67.6,41.1,29.92,WNW,297,2.0,2.0,38,0.00,,,0.00,Wunderground v.1.15,2013-04-22 02:59:00,
2013-04-21 20:29:00,65.6,41.9,29.93,WNW,290,2.0,5.0,42,0.00,,,0.00,Wunderground v.1.15,2013-04-22 03:29:00,
2013-04-21 20:58:00,63.5,42.3,29.93,WNW,292,0.0,5.0,46,0.00,,,0.00,Wunderground v.1.15,2013-04-22 03:58:00,
2013-04-21 21:29:00,62.3,42.3,29.94,NW,309,3.0,3.0,48,0.00,,,0.00,Wunderground v.1.15,2013-04-22 04:29:00,
2013-04-21 21:58:00,60.3,43.1,29.95,NW,308,1.0,1.0,53,0.00,,,0.00,Wunderground v.1.15,2013-04-22 04:58:00,
2013-04-21 22:28:00,59.4,43.2,29.95,WNW,298,1.0,1.0,55,0.00,,,0.00,Wunderground v.1.15,2013-04-22 05:28:00,
2013-04-21 22:58:00,57.5,43.7,29.95,WNW,298,3.0,3.0,60,0.00,,,0.00,Wunderground v.1.15,2013-04-22 05:58:00,
2013-04-21 23:28:00,56.6,43.3,29.95,WNW,298,1.0,1.0,61,0.00,,,0.00,Wunderground v.1.15,2013-04-22 06:28:00,
2013-04-21 23:58:00,56.5,44.0,29.95,WNW,298,1.0,1.0,63,0.00,,,0.00,Wunderground v.1.15,2013-04-22 06:58:00,